Starlink 35053

operational
NORAD ID: 65609 Int'l Des: 2025-207 Owner: SPXS Country: US Constellation: starlink
NOTLE

About Starlink 35053

Description loading...

Live Position

Loading 3D Globe...

Upcoming Passes

Altitude History

Altitude vs Time

uPlot chart will show altitude changes over time

Two-Line Element Set

1 65609U 25207T 25354.58336806 -.02448106 00000-0 -10759+0 0 9998
2 65609 97.6073 60.6394 0001147 65.9256 324.6347 15.25460716 5892
Epoch: Dec 20, 2025 • Age: 9 hours

Current Status

Altitude 499.1 km
Velocity 7.61 km/s
Sub-Earth Point -3.73°S, 17.81°W
Launch Date Sep 13, 2025
Age 0.2 years
Type internet

Technical Details

Classification Payload
Mass 575.00 kg
Dry Mass 530.00 kg
Total Mass 575.00 kg
Length 0.30 m
Diameter 4.10 m
Span 29.00 m
Shape Box + pan
Manufacturer SPXS
Bus Type Starlink V2MO
Phase Status In Orbit
Owner/State SPXS/US

Large Constellations

Loading constellations...